SAS174 ESMS-ESSA

Flight info

Callsign SAS174
Flight time N/A
Altitude 21000
Route NEXI1L NEXIL N851 ROXEN MIKNA N851 PELUP Z226 NILUG NILU2M
Aircraft CRJ9/M-SDFGIRWZ/S

Departure

Time 2026-05-05 15:10
Airport Malmö Sturup Airport (ESMS)

Arrival

Time N/A
Airport Stockholm-Arlanda Airport (ESSA)
Time Latitude Longitude Altitude Speed Heading
2026-05-05 14:52 55.54002 13.36787 234 ft 0 kts 353°
2026-05-05 14:59 55.53986 13.36790 234 ft 3 kts 353°
2026-05-05 15:00 55.53969 13.36794 234 ft 2 kts 353°
2026-05-05 15:00 55.53958 13.36794 236 ft 2 kts 14°
2026-05-05 15:00 55.53944 13.36770 234 ft 0 kts 78°
2026-05-05 15:00 55.53944 13.36769 234 ft 0 kts 78°
2026-05-05 15:05 55.53946 13.36826 234 ft 11 kts 97°
2026-05-05 15:05 55.53957 13.37049 234 ft 13 kts 84°
2026-05-05 15:05 55.53950 13.37237 236 ft 14 kts 129°
2026-05-05 15:06 55.53885 13.37274 236 ft 17 kts 173°
2026-05-05 15:06 55.53701 13.37313 236 ft 31 kts 173°
2026-05-05 15:06 55.53491 13.37359 233 ft 30 kts 172°
2026-05-05 15:06 55.53283 13.37403 233 ft 30 kts 174°
2026-05-05 15:07 55.53078 13.37441 233 ft 30 kts 173°
2026-05-05 15:07 55.52874 13.37484 233 ft 29 kts 173°
2026-05-05 15:07 55.52671 13.37525 233 ft 29 kts 173°
2026-05-05 15:07 55.52485 13.37569 233 ft 17 kts 165°
2026-05-05 15:08 55.52382 13.37669 232 ft 17 kts 142°
2026-05-05 15:08 55.52367 13.37690 232 ft 0 kts 143°
2026-05-05 15:08 55.52349 13.37714 232 ft 14 kts 141°
2026-05-05 15:09 55.52321 13.37846 231 ft 6 kts 55°
2026-05-05 15:09 55.52415 13.37871 232 ft 32 kts 354°
2026-05-05 15:09 55.52850 13.37780 235 ft 99 kts 353°
2026-05-05 15:09 55.53757 13.37597 280 ft 157 kts 352°
2026-05-05 15:10 55.54910 13.37362 896 ft 178 kts 353°
2026-05-05 15:10 55.56265 13.37046 1297 ft 211 kts 353°
2026-05-05 15:10 55.57832 13.36732 1761 ft 242 kts 354°
2026-05-05 15:10 55.59603 13.36425 2215 ft 269 kts 354°
2026-05-05 15:11 55.61558 13.36191 2658 ft 295 kts
2026-05-05 15:11 55.63562 13.37383 3091 ft 318 kts 32°
2026-05-05 15:11 55.64947 13.40250 3608 ft 303 kts 62°
2026-05-05 15:11 55.65770 13.43787 4156 ft 319 kts 58°
2026-05-05 15:12 55.67307 13.46684 4716 ft 329 kts 36°
2026-05-05 15:12 55.69184 13.48981 5258 ft 329 kts 24°
2026-05-05 15:12 55.70790 13.50038 5655 ft 333 kts 16°